EW3244 Weather Reports


Display with metric or nautical units.
time (UTC)temp
F
wind
direction
speed
MPH
gust
MPH
rain 1hr
in
rain 24hr
in
rain mn
in
humidity
%
barometer
mb
20260508181506 52 279 2.0 8.0 0.00 0.00 0.00 26 1024.3
20260508174558 54 220 2.0 5.0 0.00 0.00 0.00 26 1024.0
20260508173100 54 354 2.0 8.0 0.00 0.00 0.00 27 1023.9
20260508171607 55 296 4.0 8.0 0.00 0.00 0.00 25 1023.9
20260508170101 56 232 3.0 8.0 0.00 0.00 0.00 25 1023.9
20260508164557 56 284 4.0 9.0 0.00 0.00 0.00 24 1023.9
20260508163057 56 236 2.0 10.0 0.00 0.00 0.00 26 1023.7
20260508161555 57 239 3.0 10.0 0.00 0.00 0.00 25 1023.8
20260508160057 57 301 3.0 7.0 0.00 0.00 0.00 26 1023.8
20260508154554 57 279 3.0 10.0 0.00 0.00 0.00 25 1023.8
20260508153051 58 312 4.0 10.0 0.00 0.00 0.00 24 1023.7
20260508151550 58 254 4.0 8.0 0.00 0.00 0.00 24 1023.8
20260508150048 58 296 2.0 10.0 0.00 0.00 0.00 25 1023.7
20260508144546 59 307 3.0 10.0 0.00 0.00 0.00 25 1023.8
20260508143044 59 208 4.0 11.0 0.00 0.00 0.00 25 1023.8
20260508141541 58 266 5.0 12.0 0.00 0.00 0.00 25 1023.9
20260508140041 59 269 2.0 11.0 0.00 0.00 0.00 26 1023.8
20260508134538 59 260 3.0 10.0 0.00 0.00 0.00 25 1023.9
20260508133037 59 301 3.0 12.0 0.00 0.00 0.00 25 1023.9
20260508131532 60 318 4.0 10.0 0.00 0.00 0.00 24 1023.9
20260508130037 59 299 2.0 9.0 0.00 0.00 0.00 25 1023.9
20260508124529 59 256 3.0 10.0 0.00 0.00 0.00 26 1024.0
20260508123028 59 242 5.0 13.0 0.00 0.00 0.00 25 1023.9
20260508121528 59 358 3.0 8.0 0.00 0.00 0.00 26 1023.9
20260508120027 60 17 3.0 9.0 0.00 0.00 0.00 27 1024.0
20260508114524 59 360 4.0 11.0 0.00 0.00 0.00 25 1024.0
20260508113023 59 257 1.0 11.0 0.00 0.00 0.00 26 1024.0
20260508111522 58 310 3.0 9.0 0.00 0.00 0.00 25 1024.0
20260508110020 58 313 2.0 9.0 0.00 0.00 0.00 28 1024.0
20260508104532 59 260 3.0 8.0 0.00 0.00 0.00 29 1024.0
20260508103119 59 356 1.0 9.0 0.00 0.00 0.00 31 1024.0
20260508101517 58 19 3.0 9.0 0.00 0.00 0.00 31 1024.0
20260508100016 57 269 3.0 11.0 0.00 0.00 0.00 32 1024.0
20260508094513 57 221 4.0 9.0 0.00 0.00 0.00 34 1024.0
20260508093013 57 231 3.0 10.0 0.00 0.00 0.00 33 1024.0
20260508091515 57 318 4.0 9.0 0.00 0.00 0.00 34 1024.0
20260508090016 57 314 4.0 11.0 0.00 0.00 0.00 33 1024.0
20260508084508 56 289 4.0 11.0 0.00 0.00 0.00 34 1024.1
20260508083007 55 298 3.0 12.0 0.00 0.00 0.00 33 1024.1
20260508081505 55 238 3.0 11.0 0.00 0.00 0.00 34 1024.1
20260508080003 55 243 4.0 10.0 0.00 0.00 0.00 36 1023.9
20260508074601 55 242 3.0 10.0 0.00 0.00 0.00 36 1024.0
20260508073059 54 309 6.0 11.0 0.00 0.00 0.00 35 1023.8
20260508071602 53 267 3.0 9.0 0.00 0.00 0.00 37 1023.7
20260508070138 52 287 5.0 8.0 0.00 0.00 0.00 37 1023.6
20260508064605 52 265 4.0 8.0 0.00 0.00 0.00 38 1023.3
20260508063048 51 324 3.0 8.0 0.00 0.00 0.00 38 1023.2
20260508061548 50 270 3.0 9.0 0.00 0.00 0.00 35 1023.1
20260508060040 49 310 2.0 7.0 0.00 0.00 0.00 36 1022.9
20260508054536 48 308 1.0 6.0 0.00 0.00 0.00 41 1022.8
20260508053035 47 298 2.0 6.0 0.00 0.00 0.00 44 1022.7
20260508051531 46 279 1.0 8.0 0.00 0.00 0.00 46 1022.6
20260508050027 46 290 0.0 3.0 0.00 0.00 0.00 49 1022.4
20260508044523 45 287 0.0 1.0 0.00 0.00 0.00 53 1022.2
20260508043039 43 287 0.0 1.0 0.00 0.00 0.00 57 1022.2
20260508041517 40 273 0.0 2.0 0.00 0.00 0.00 63 1022.1
20260508040021 38 359 0.0 0.0 0.00 0.00 0.00 67 1021.9
20260508034514 36 359 0.0 1.0 0.00 0.00 0.00 69 1021.7
20260508033010 35 359 0.0 0.0 0.00 0.00 0.00 66 1021.7
20260508031517 36 359 0.0 1.0 0.00 0.00 0.00 64 1021.6
20260508030005 36 359 0.0 1.0 0.00 0.00 0.00 63 1021.5
20260508024502 36 314 0.0 2.0 0.00 0.00 0.00 63 1021.2
20260508023101 37 310 0.0 2.0 0.00 0.00 0.00 62 1021.1
20260508021600 38 315 0.0 5.0 0.00 0.00 0.00 61 1021.0
20260508020110 38 310 1.0 3.0 0.00 0.00 0.00 60 1020.9
20260508014554 38 318 1.0 6.0 0.00 0.00 0.00 63 1020.8
20260508013100 37 298 0.0 2.0 0.00 0.00 0.00 62 1020.6
20260508011551 37 287 0.0 2.0 0.00 0.00 0.00 62 1020.6
20260508010047 37 317 0.0 1.0 0.00 0.00 0.00 60 1020.4
20260508004545 38 324 0.0 1.0 0.00 0.00 0.00 59 1020.2
20260508003042 38 317 0.0 2.0 0.00 0.00 0.00 60 1020.0
20260508001540 38 325 0.0 3.0 0.00 0.00 0.00 60 1019.9
20260508000037 38 296 0.0 3.0 0.00 0.00 0.00 60 1019.8
20260507234540 38 308 0.0 2.0 0.00 0.00 0.00 59 1019.7
20260507233032 38 313 0.0 1.0 0.00 0.00 0.00 57 1019.6
20260507231531 38 314 0.0 1.0 0.00 0.00 0.00 56 1019.5
20260507230028 39 314 0.0 1.0 0.00 0.00 0.00 55 1019.4
20260507224524 40 322 0.0 5.0 0.00 0.00 0.00 53 1019.2
20260507223021 40 315 0.0 2.0 0.00 0.00 0.00 53 1019.1
20260507221520 41 325 0.0 3.0 0.00 0.00 0.00 51 1019.1
20260507220016 41 306 0.0 3.0 0.00 0.00 0.00 50 1019.0
20260507214514 42 324 1.0 4.0 0.00 0.00 0.00 49 1018.8
20260507213016 42 300 1.0 4.0 0.00 0.00 0.00 48 1018.7
20260507211511 43 298 1.0 5.0 0.00 0.00 0.00 47 1018.6
20260507210011 43 303 0.0 3.0 0.00 0.00 0.00 45 1018.5
20260507204509 44 288 1.0 4.0 0.00 0.00 0.00 44 1018.4
20260507203007 45 286 1.0 3.0 0.00 0.00 0.00 43 1018.1
20260507201505 45 296 1.0 3.0 0.00 0.00 0.00 42 1017.9
20260507200005 45 293 0.0 2.0 0.00 0.00 0.00 43 1017.8
20260507194503 46 300 0.0 4.0 0.00 0.00 0.00 41 1017.6
20260507193101 47 314 0.0 1.0 0.00 0.00 0.00 42 1017.5
20260507191616 48 314 0.0 2.0 0.00 0.00 0.00 39 1017.2
20260507190056 49 293 0.0 2.0 0.00 0.00 0.00 41 1017.0
20260507184601 52 303 0.0 3.0 0.00 0.00 0.00 38 1016.7
20260507183051 54 279 1.0 3.0 0.00 0.00 0.00 36 1016.5